Location: Huesca
(42.1318°N, 0.4078°W)
Time: 06:27:40
(UTC+02:00)

DX 1 - Visible Passes

Search period start: 16 April 2024 00:00
Search period end: 26 April 2024 00:00
Orbit: 610 x 620 km, 98.3° (Epoch: 15 April)

Date Brightness Start Highest point End Pass type
(mag) Time Alt. Az. Time Alt. Az. Time Alt. Az.
16 Apr ? 02:56:49 10° NNW 02:57:22 12° NNW 02:57:22 12° NNW visible
17 Apr ? 01:35:57 10° NNE 01:36:22 12° NNE 01:36:22 12° NNE visible
17 Apr ? 03:13:14 10° NNW 03:13:26 11° NNW 03:13:26 11° NNW visible
18 Apr ? 01:51:40 10° NNE 01:52:26 15° NNE 01:52:26 15° NNE visible
19 Apr ? 02:07:28 10° N 02:08:29 17° N 02:08:29 17° N visible
20 Apr ? 02:23:21 10° N 02:24:32 18° N 02:24:32 18° N visible
21 Apr ? 02:39:20 10° N 02:40:34 17° NNW 02:40:34 17° NNW visible
22 Apr ? 01:19:06 10° NNE 01:19:32 12° NE 01:19:32 12° NE visible
22 Apr ? 02:55:27 10° NNW 02:56:36 15° NNW 02:56:36 15° NNW visible
23 Apr ? 01:34:38 10° NNE 01:35:34 16° NNE 01:35:34 16° NNE visible
23 Apr ? 03:11:46 10° NNW 03:12:38 13° NW 03:12:38 13° NW visible
24 Apr ? 01:50:18 10° NNE 01:51:35 19° NNE 01:51:35 19° NNE visible
24 Apr ? 03:28:35 10° NW 03:28:39 10° NW 03:28:39 10° NW visible
25 Apr ? 02:06:02 10° N 02:07:36 22° N 02:07:36 22° N visible
